QPF
0.00 0.00 0.00 0.00 0.01 0.03 0.03 0.03 0.04 0.04 0.04 0.04 0.03 0.02 0.01 0.01 0.00 0.00 0.00 0.00 0.00 0.00 0.00 0.00 0.00 0.00 0.00 0.00 0.00 0.00 0.01 0.01 0.03 0.04 0.02 0.02 0.01 0.01 0.01 0.02 0.01 0.01 0.01
0.00 0.00 0.00 0.00 0.01 0.01 0.03 0.05 0.07 0.08 0.07 0.06 0.05 0.02 0.01 0.00 0.00 0.00 0.00 0.00 0.00 0.00 0.00 0.00 0.00 0.00 0.00 0.00 0.00 0.00 0.01 0.01 0.01 0.02 0.02 0.01 0.01 0.01 0.02 0.02 0.01 0.01 0.00
0.00 0.00 0.00 0.00 0.00 0.00 0.01 0.02 0.03 0.05 0.05 0.04 0.04 0.03 0.01 0.00 0.00 0.00 0.01 0.01 0.01 0.00 0.00 0.01 0.01 0.01 0.01 0.00 0.00 0.01 0.01 0.01 0.01 0.01 0.01 0.02 0.01 0.01 0.02 0.02 0.01 0.00 0.00
0.00 0.00 0.00 0.00 0.00 0.00 0.00 0.01 0.01 0.01 0.01 0.01 0.01 0.01 0.01 0.00 0.00 0.00 0.00 0.00 0.00 0.00 0.00 0.01 0.01 0.01 0.01 0.00 0.00 0.00 0.01 0.01 0.01 0.01 0.01 0.01 0.02 0.02 0.02 0.02 0.02 0.02 0.01
0.01 0.01 0.01 0.00 0.00 0.00 0.00 0.00 0.01 0.01 0.01 0.01 0.01 0.01 0.01 0.01 0.00 0.00 0.00 0.00 0.00 0.01 0.01 0.00 0.00 0.00 0.00 0.00 0.00 0.00 0.00 0.01 0.01 0.01 0.01 0.01 0.01 0.01 0.01 0.01 0.02 0.02 0.02
0.01 0.01 0.01 0.00 0.00 0.00 0.00 0.00 0.00 0.00 0.01 0.01 0.01 0.01 0.01 0.01 0.01 0.01 0.00 0.00 0.00 0.01 0.01 0.00 0.00 0.00 0.00 0.00 0.00 0.00 0.00 0.00 0.01 0.01 0.01 0.01 0.00 0.00 0.00 0.00 0.01 0.01 0.01
0.00 0.01 0.01 0.01 0.00 0.00 0.00 0.00 0.00 0.00 0.01 0.01 0.01 0.01 0.01 0.01 0.01 0.01 0.00 0.00 0.00 0.01 0.01 0.01 0.00 0.00 0.00 0.00 0.00 0.00 0.00 0.00 0.00 0.01 0.01 0.00 0.00 0.00 0.00 0.00 0.00 0.00 0.00
0.00 0.01 0.01 0.01 0.01 0.00 0.00 0.00 0.01 0.01 0.01 0.01 0.01 0.01 0.01 0.01 0.01 0.00 0.00 0.00 0.01 0.01 0.01 0.01 0.00 0.00 0.00 0.00 0.00 0.00 0.00 0.00 0.00 0.00 0.00 0.00 0.00 0.00 0.00 0.00 0.00 0.00 0.00
0.01 0.01 0.01 0.01 0.01 0.00 0.00 0.01 0.01 0.01 0.01 0.01 0.01 0.01 0.01 0.01 0.00 0.00 0.00 0.01 0.01 0.01 0.01 0.00 0.00 0.00 0.00 0.00 0.00 0.00 0.00 0.00 0.00 0.00 0.00 0.00 0.00 0.00 0.00 0.00 0.00 0.00 0.00
0.01 0.01 0.00 0.01 0.01 0.00 0.00 0.01 0.01 0.01 0.01 0.01 0.00 0.01 0.01 0.01 0.00 0.00 0.00 0.01 0.01 0.01 0.01 0.00 0.00 0.00 0.00 0.00 0.00 0.00 0.00 0.00 0.00 0.00 0.00 0.00 0.00 0.00 0.00 0.00 0.00 0.00 0.00
0.00 0.00 0.01 0.01 0.00 0.00 0.00 0.01 0.02 0.01 0.00 0.00 0.01 0.01 0.01 0.00 0.00 0.00 0.01 0.01 0.01 0.01 0.01 0.00 0.00 0.00 0.00 0.00 0.00 0.00 0.00 0.00 0.00 0.00 0.00 0.00 0.00 0.00 0.00 0.00 0.00 0.00 0.00
0.01 0.01 0.01 0.01 0.01 0.00 0.00 0.00 0.01 0.03 0.02 0.01 0.01 0.01 0.00 0.00 0.00 0.00 0.00 0.00 0.00 0.00 0.00 0.00 0.00 0.00 0.00 0.00 0.00 0.00 0.00 0.01 0.01 0.00 0.00 0.00 0.00 0.00 0.00 0.00 0.00 0.00 0.00
0.03 0.02 0.01 0.01 0.02 0.01 0.01 0.01 0.01 0.02 0.03 0.02 0.01 0.00 0.00 0.00 0.00 0.00 0.00 0.00 0.00 0.00 0.00 0.00 0.00 0.00 0.00 0.00 0.00 0.00 0.00 0.00 0.01 0.00 0.00 0.00 0.00 0.00 0.00 0.00 0.00 0.00 0.00
0.01 0.02 0.02 0.01 0.01 0.01 0.01 0.01 0.01 0.01 0.02 0.02 0.01 0.00 0.00 0.00 0.00 0.00 0.00 0.00 0.00 0.00 0.00 0.00 0.00 0.00 0.00 0.00 0.00 0.00 0.00 0.00 0.00 0.00 0.00 0.00 0.00 0.00 0.00 0.00 0.00 0.00 0.00
0.00 0.01 0.01 0.01 0.01 0.01 0.01 0.01 0.01 0.01 0.01 0.01 0.01 0.01 0.00 0.00 0.00 0.00 0.00 0.00 0.00 0.00 0.00 0.00 0.00 0.00 0.00 0.00 0.00 0.00 0.00 0.00 0.00 0.00 0.00 0.00 0.00 0.00 0.00 0.00 0.00 0.00 0.00
0.00 0.01 0.01 0.01 0.01 0.01 0.01 0.01 0.01 0.01 0.01 0.00 0.00 0.00 0.00 0.00 0.00 0.00 0.00 0.00 0.00 0.00 0.00 0.00 0.00 0.00 0.00 0.00 0.00 0.00 0.00 0.00 0.00 0.00 0.00 0.00 0.01 0.01 0.01 0.01 0.01 0.01 0.01
0.01 0.01 0.01 0.01 0.01 0.02 0.02 0.02 0.02 0.02 0.01 0.01 0.01 0.00 0.00 0.00 0.00 0.00 0.00 0.00 0.00 0.00 0.00 0.00 0.00 0.00 0.00 0.00 0.00 0.00 0.00 0.00 0.00 0.00 0.00 0.00 0.00 0.01 0.01 0.01 0.01 0.01 0.01
0.03 0.03 0.03 0.02 0.02 0.02 0.02 0.02 0.02 0.02 0.02 0.01 0.01 0.01 0.00 0.00 0.00 0.00 0.00 0.00 0.00 0.00 0.00 0.00 0.01 0.01 0.00 0.00 0.00 0.00 0.00 0.00 0.00 0.00 0.00 0.01 0.01 0.01 0.01 0.01 0.01 0.01 0.01
0.03 0.03 0.03 0.04 0.04 0.03 0.02 0.03 0.02 0.02 0.02 0.02 0.01 0.01 0.01 0.00 0.00 0.00 0.00 0.00 0.00 0.01 0.01 0.01 0.01 0.01 0.00 0.00 0.00 0.00 0.00 0.00 0.00 0.00 0.01 0.01 0.01 0.01 0.01 0.01 0.01 0.01 0.01
0.03 0.03 0.03 0.03 0.04 0.05 0.05 0.03 0.02 0.02 0.02 0.01 0.01 0.00 0.00 0.00 0.00 0.00 0.00 0.00 0.01 0.01 0.01 0.01 0.00 0.00 0.00 0.00 0.00 0.00 0.01 0.00 0.01 0.01 0.01 0.01 0.01 0.01 0.01 0.01 0.01 0.01 0.01
0.01 0.02 0.02 0.03 0.03 0.04 0.04 0.04 0.02 0.02 0.02 0.01 0.01 0.00 0.00 0.00 0.00 0.00 0.01 0.01 0.01 0.01 0.00 0.00 0.00 0.00 0.00 0.00 0.01 0.01 0.01 0.01 0.01 0.01 0.01 0.01 0.01 0.01 0.01 0.01 0.01 0.01 0.01
0.01 0.01 0.01 0.02 0.02 0.02 0.03 0.03 0.03 0.02 0.01 0.01 0.01 0.01 0.01 0.01 0.01 0.01 0.01 0.00 0.00 0.00 0.00 0.00 0.00 0.00 0.00 0.00 0.01 0.01 0.01 0.01 0.01 0.01 0.01 0.01 0.01 0.01 0.01 0.01 0.01 0.01 0.02
0.01 0.01 0.01 0.01 0.01 0.01 0.02 0.02 0.02 0.01 0.01 0.01 0.01 0.01 0.01 0.01 0.01 0.00 0.00 0.00 0.00 0.00 0.00 0.00 0.00 0.00 0.00 0.00 0.01 0.01 0.02 0.01 0.01 0.01 0.01 0.01 0.01 0.01 0.01 0.01 0.01 0.02 0.02
0.00 0.00 0.00 0.01 0.01 0.01 0.01 0.01 0.01 0.01 0.01 0.01 0.01 0.01 0.01 0.01 0.00 0.00 0.00 0.00 0.00 0.00 0.00 0.00 0.00 0.00 0.00 0.00 0.01 0.01 0.01 0.01 0.01 0.01 0.01 0.01 0.01 0.01 0.01 0.01 0.01 0.02 0.02
0.00 0.00 0.00 0.01 0.01 0.01 0.01 0.01 0.01 0.01 0.01 0.01 0.01 0.01 0.01 0.00 0.00 0.00 0.00 0.00 0.00 0.00 0.00 0.00 0.00 0.00 0.00 0.01 0.01 0.01 0.01 0.01 0.01 0.01 0.01 0.01 0.01 0.01 0.01 0.01 0.02 0.02 0.02
0.00 0.00 0.00 0.00 0.01 0.01 0.01 0.01 0.01 0.01 0.01 0.01 0.01 0.01 0.01 0.01 0.00 0.00 0.00 0.00 0.00 0.00 0.00 0.00 0.00 0.01 0.01 0.01 0.01 0.01 0.01 0.01 0.01 0.01 0.01 0.01 0.01 0.01 0.01 0.01 0.02 0.02 0.02
MSLP
1020.76 1021.14 1021.57 1022.01 1022.41 1022.72 1022.96 1023.12 1023.24 1023.35 1023.48 1023.64 1023.85 1024.07 1024.28 1024.46 1024.58 1024.62 1024.60 1024.53 1024.44 1024.37 1024.34 1024.36 1024.43 1024.54 1024.64 1024.72 1024.73 1024.68 1024.55 1024.35 1024.11 1023.84 1023.58 1023.32 1023.07 1022.81 1022.54 1022.24 1021.89 1021.51 1021.11
1021.03 1021.43 1021.87 1022.31 1022.70 1023.02 1023.26 1023.44 1023.58 1023.71 1023.87 1024.07 1024.30 1024.55 1024.80 1025.01 1025.15 1025.23 1025.24 1025.19 1025.12 1025.05 1025.02 1025.02 1025.07 1025.14 1025.22 1025.27 1025.27 1025.20 1025.07 1024.88 1024.64 1024.38 1024.12 1023.85 1023.58 1023.30 1022.99 1022.64 1022.25 1021.81 1021.35
1021.29 1021.72 1022.18 1022.62 1023.01 1023.33 1023.57 1023.76 1023.92 1024.07 1024.26 1024.48 1024.74 1025.02 1025.29 1025.53 1025.70 1025.81 1025.84 1025.83 1025.78 1025.73 1025.70 1025.70 1025.74 1025.79 1025.85 1025.87 1025.85 1025.77 1025.63 1025.44 1025.21 1024.95 1024.68 1024.41 1024.13 1023.83 1023.50 1023.13 1022.70 1022.23 1021.73
1021.54 1022.00 1022.47 1022.92 1023.32 1023.63 1023.88 1024.08 1024.26 1024.44 1024.64 1024.89 1025.17 1025.47 1025.76 1026.01 1026.21 1026.34 1026.40 1026.41 1026.39 1026.36 1026.35 1026.36 1026.40 1026.45 1026.49 1026.50 1026.46 1026.37 1026.21 1026.01 1025.77 1025.50 1025.23 1024.95 1024.67 1024.37 1024.04 1023.66 1023.22 1022.73 1022.20
1021.73 1022.24 1022.75 1023.21 1023.61 1023.93 1024.19 1024.40 1024.59 1024.79 1025.02 1025.29 1025.58 1025.89 1026.18 1026.44 1026.65 1026.79 1026.88 1026.91 1026.92 1026.92 1026.93 1026.96 1027.00 1027.05 1027.09 1027.09 1027.04 1026.93 1026.75 1026.53 1026.27 1025.99 1025.71 1025.43 1025.15 1024.85 1024.53 1024.16 1023.74 1023.25 1022.71
1021.84 1022.41 1022.95 1023.44 1023.85 1024.19 1024.46 1024.69 1024.90 1025.12 1025.37 1025.65 1025.94 1026.25 1026.54 1026.80 1027.00 1027.15 1027.24 1027.30 1027.32 1027.35 1027.39 1027.44 1027.50 1027.56 1027.60 1027.59 1027.53 1027.40 1027.20 1026.96 1026.67 1026.37 1026.08 1025.78 1025.50 1025.21 1024.91 1024.57 1024.17 1023.71 1023.17
1021.84 1022.47 1023.05 1023.56 1024.00 1024.35 1024.64 1024.90 1025.14 1025.38 1025.64 1025.93 1026.23 1026.53 1026.81 1027.05 1027.24 1027.38 1027.48 1027.55 1027.60 1027.65 1027.71 1027.79 1027.87 1027.94 1027.99 1027.97 1027.90 1027.75 1027.53 1027.26 1026.95 1026.63 1026.30 1026.00 1025.71 1025.43 1025.14 1024.83 1024.46 1024.03 1023.53
1021.69 1022.37 1022.99 1023.53 1023.99 1024.37 1024.69 1024.98 1025.25 1025.51 1025.80 1026.09 1026.39 1026.68 1026.95 1027.18 1027.36 1027.50 1027.60 1027.67 1027.74 1027.81 1027.90 1028.00 1028.10 1028.19 1028.24 1028.23 1028.14 1027.98 1027.75 1027.45 1027.11 1026.76 1026.42 1026.09 1025.79 1025.51 1025.24 1024.94 1024.61 1024.22 1023.74
1021.37 1022.09 1022.74 1023.31 1023.80 1024.21 1024.57 1024.89 1025.19 1025.49 1025.80 1026.11 1026.41 1026.70 1026.96 1027.18 1027.36 1027.50 1027.61 1027.70 1027.79 1027.88 1027.99 1028.12 1028.24 1028.33 1028.39 1028.38 1028.30 1028.13 1027.88 1027.57 1027.21 1026.84 1026.47 1026.13 1025.81 1025.52 1025.25 1024.97 1024.66 1024.29 1023.85
1020.87 1021.61 1022.29 1022.88 1023.41 1023.86 1024.26 1024.63 1024.97 1025.31 1025.65 1025.98 1026.30 1026.60 1026.87 1027.09 1027.28 1027.43 1027.56 1027.67 1027.79 1027.91 1028.04 1028.19 1028.32 1028.43 1028.49 1028.49 1028.41 1028.24 1028.00 1027.68 1027.32 1026.94 1026.55 1026.19 1025.85 1025.55 1025.26 1024.98 1024.67 1024.33 1023.91
1020.22 1020.97 1021.66 1022.28 1022.84 1023.34 1023.79 1024.21 1024.61 1024.99 1025.37 1025.74 1026.08 1026.40 1026.69 1026.94 1027.15 1027.33 1027.49 1027.64 1027.78 1027.94 1028.09 1028.25 1028.40 1028.52 1028.59 1028.60 1028.53 1028.37 1028.14 1027.84 1027.49 1027.11 1026.73 1026.36 1026.01 1025.68 1025.37 1025.07 1024.76 1024.41 1024.01
1019.46 1020.20 1020.90 1021.55 1022.15 1022.70 1023.21 1023.69 1024.15 1024.59 1025.01 1025.42 1025.80 1026.16 1026.48 1026.76 1027.02 1027.24 1027.44 1027.63 1027.81 1027.99 1028.18 1028.35 1028.51 1028.64 1028.72 1028.73 1028.68 1028.55 1028.34 1028.08 1027.76 1027.41 1027.05 1026.68 1026.32 1025.98 1025.64 1025.31 1024.98 1024.61 1024.21
1018.65 1019.37 1020.08 1020.76 1021.40 1022.01 1022.59 1023.13 1023.65 1024.15 1024.63 1025.08 1025.50 1025.90 1026.26 1026.59 1026.89 1027.17 1027.42 1027.65 1027.88 1028.09 1028.29 1028.48 1028.64 1028.77 1028.86 1028.89 1028.86 1028.76 1028.61 1028.39 1028.13 1027.83 1027.50 1027.16 1026.80 1026.45 1026.09 1025.73 1025.36 1024.96 1024.54
1017.85 1018.56 1019.28 1019.99 1020.68 1021.35 1021.99 1022.60 1023.18 1023.74 1024.26 1024.76 1025.22 1025.66 1026.06 1026.44 1026.79 1027.12 1027.42 1027.70 1027.96 1028.20 1028.42 1028.62 1028.79 1028.92 1029.01 1029.06 1029.05 1029.00 1028.90 1028.75 1028.56 1028.32 1028.05 1027.75 1027.42 1027.06 1026.69 1026.29 1025.88 1025.44 1024.99
1017.13 1017.83 1018.56 1019.30 1020.04 1020.77 1021.47 1022.14 1022.78 1023.38 1023.95 1024.48 1024.98 1025.45 1025.90 1026.31 1026.71 1027.08 1027.43 1027.75 1028.05 1028.31 1028.55 1028.75 1028.91 1029.04 1029.14 1029.21 1029.23 1029.23 1029.19 1029.11 1029.00 1028.84 1028.64 1028.39 1028.09 1027.75 1027.36 1026.93 1026.47 1025.99 1025.49
1016.55 1017.24 1017.97 1018.74 1019.52 1020.30 1021.05 1021.77 1022.46 1023.09 1023.69 1024.25 1024.78 1025.27 1025.75 1026.20 1026.63 1027.04 1027.43 1027.78 1028.10 1028.39 1028.63 1028.84 1029.00 1029.13 1029.24 1029.31 1029.37 1029.41 1029.43 1029.42 1029.39 1029.31 1029.17 1028.98 1028.72 1028.39 1028.00 1027.55 1027.05 1026.51 1025.96
1016.12 1016.79 1017.53 1018.32 1019.13 1019.94 1020.73 1021.49 1022.20 1022.87 1023.48 1024.06 1024.60 1025.11 1025.60 1026.08 1026.54 1026.98 1027.39 1027.78 1028.12 1028.42 1028.67 1028.88 1029.05 1029.18 1029.29 1029.38 1029.46 1029.54 1029.61 1029.66 1029.69 1029.67 1029.60 1029.45 1029.23 1028.91 1028.52 1028.04 1027.50 1026.92 1026.31
1015.86 1016.51 1017.24 1018.02 1018.85 1019.67 1020.49 1021.26 1021.99 1022.67 1023.30 1023.88 1024.43 1024.95 1025.45 1025.95 1026.43 1026.89 1027.33 1027.74 1028.10 1028.42 1028.69 1028.90 1029.07 1029.21 1029.32 1029.42 1029.52 1029.62 1029.72 1029.81 1029.88 1029.91 1029.87 1029.76 1029.55 1029.25 1028.84 1028.34 1027.77 1027.14 1026.47
1015.75 1016.37 1017.07 1017.84 1018.66 1019.49 1020.30 1021.08 1021.81 1022.49 1023.12 1023.71 1024.26 1024.79 1025.30 1025.81 1026.30 1026.79 1027.25 1027.68 1028.07 1028.40 1028.68 1028.91 1029.09 1029.24 1029.36 1029.46 1029.57 1029.68 1029.79 1029.89 1029.97 1030.01 1029.99 1029.88 1029.67 1029.36 1028.94 1028.42 1027.81 1027.14 1026.43
1015.78 1016.35 1017.02 1017.76 1018.55 1019.36 1020.16 1020.93 1021.65 1022.33 1022.96 1023.54 1024.10 1024.63 1025.15 1025.67 1026.19 1026.69 1027.17 1027.62 1028.03 1028.39 1028.69 1028.93 1029.13 1029.28 1029.40 1029.51 1029.62 1029.72 1029.82 1029.91 1029.98 1030.00 1029.96 1029.83 1029.60 1029.26 1028.82 1028.27 1027.64 1026.94 1026.19
1015.92 1016.45 1017.07 1017.77 1018.52 1019.29 1020.06 1020.81 1021.52 1022.18 1022.80 1023.39 1023.95 1024.49 1025.03 1025.56 1026.09 1026.61 1027.11 1027.58 1028.01 1028.39 1028.70 1028.97 1029.17 1029.34 1029.46 1029.57 1029.66 1029.74 1029.82 1029.87 1029.90 1029.88 1029.79 1029.62 1029.36 1028.99 1028.51 1027.94 1027.29 1026.57 1025.81
1016.16 1016.64 1017.21 1017.86 1018.56 1019.29 1020.02 1020.74 1021.42 1022.07 1022.69 1023.28 1023.84 1024.39 1024.94 1025.48 1026.02 1026.55 1027.07 1027.55 1028.00 1028.39 1028.72 1029.00 1029.22 1029.38 1029.51 1029.61 1029.68 1029.74 1029.78 1029.78 1029.76 1029.68 1029.53 1029.30 1028.99 1028.57 1028.07 1027.48 1026.81 1026.09 1025.33
1016.47 1016.92 1017.45 1018.05 1018.70 1019.38 1020.06 1020.74 1021.40 1022.03 1022.64 1023.22 1023.79 1024.34 1024.89 1025.44 1025.99 1026.53 1027.04 1027.53 1027.98 1028.37 1028.71 1028.99 1029.22 1029.39 1029.51 1029.60 1029.65 1029.67 1029.67 1029.62 1029.54 1029.39 1029.19 1028.90 1028.53 1028.08 1027.54 1026.94 1026.27 1025.55 1024.80
1016.83 1017.26 1017.76 1018.32 1018.92 1019.55 1020.19 1020.83 1021.46 1022.07 1022.66 1023.23 1023.79 1024.35 1024.90 1025.45 1025.99 1026.51 1027.02 1027.50 1027.93 1028.32 1028.65 1028.92 1029.14 1029.31 1029.42 1029.50 1029.53 1029.52 1029.48 1029.39 1029.25 1029.05 1028.78 1028.44 1028.02 1027.54 1026.98 1026.36 1025.70 1025.00 1024.27
1017.22 1017.64 1018.12 1018.65 1019.22 1019.81 1020.41 1021.01 1021.60 1022.18 1022.75 1023.31 1023.86 1024.40 1024.94 1025.47 1025.99 1026.50 1026.98 1027.43 1027.84 1028.20 1028.51 1028.77 1028.97 1029.13 1029.23 1029.29 1029.30 1029.27 1029.20 1029.07 1028.89 1028.64 1028.33 1027.95 1027.50 1026.99 1026.41 1025.79 1025.14 1024.45 1023.75
1017.59 1018.03 1018.51 1019.02 1019.56 1020.11 1020.67 1021.24 1021.80 1022.35 1022.90 1023.43 1023.96 1024.49 1025.00 1025.51 1026.00 1026.48 1026.92 1027.33 1027.70 1028.03 1028.31 1028.54 1028.72 1028.86 1028.95 1028.99 1028.99 1028.94 1028.84 1028.69 1028.48 1028.20 1027.86 1027.45 1026.97 1026.44 1025.86 1025.24 1024.59 1023.92 1023.24
Thickness
5715 5714 5711 5710 5709 5708 5707 5706 5704 5703 5701 5700 5699 5697 5695 5694 5694 5692 5691 5690 5689 5688 5687 5685 5683 5683 5681 5680 5679 5677 5675 5672 5664 5664 5667 5667 5666 5665 5664 5663 5662 5661 5660
5714 5711 5709 5707 5706 5705 5704 5703 5701 5699 5698 5697 5695 5693 5691 5690 5689 5688 5686 5686 5684 5682 5681 5680 5678 5678 5676 5674 5672 5670 5669 5667 5662 5658 5659 5659 5659 5658 5657 5656 5655 5654 5653
5711 5708 5705 5704 5702 5701 5700 5699 5698 5696 5694 5693 5691 5689 5687 5685 5684 5683 5683 5681 5680 5679 5677 5674 5673 5671 5668 5667 5666 5664 5662 5662 5658 5654 5651 5652 5651 5651 5650 5649 5648 5646 5646
5708 5705 5702 5700 5699 5698 5697 5695 5694 5693 5690 5688 5686 5684 5682 5680 5679 5678 5677 5676 5675 5674 5672 5669 5667 5665 5662 5661 5659 5656 5655 5653 5651 5647 5644 5643 5642 5642 5640 5638 5637 5637 5637
5705 5701 5699 5698 5696 5695 5693 5691 5690 5688 5686 5684 5681 5678 5676 5674 5673 5672 5672 5672 5670 5668 5666 5664 5661 5659 5657 5655 5652 5649 5647 5644 5642 5638 5635 5633 5631 5629 5628 5627 5626 5626 5626
5702 5698 5696 5695 5692 5690 5688 5687 5684 5683 5681 5678 5675 5671 5669 5668 5667 5667 5667 5665 5664 5662 5660 5658 5656 5653 5651 5648 5646 5643 5641 5638 5633 5630 5626 5623 5621 5620 5618 5617 5614 5613 5613
5700 5696 5693 5691 5688 5686 5685 5682 5679 5677 5675 5671 5668 5666 5663 5662 5662 5662 5661 5659 5657 5655 5654 5652 5650 5647 5644 5641 5638 5636 5633 5631 5628 5623 5618 5615 5612 5610 5609 5606 5604 5602 5601
5697 5693 5690 5687 5684 5681 5679 5676 5675 5672 5669 5666 5663 5661 5658 5657 5657 5656 5655 5653 5651 5649 5647 5645 5642 5639 5637 5634 5631 5627 5624 5622 5619 5616 5612 5609 5606 5603 5600 5597 5595 5594 5593
5693 5690 5687 5684 5680 5677 5674 5672 5670 5668 5665 5662 5659 5656 5653 5652 5651 5650 5648 5646 5644 5642 5639 5637 5635 5631 5630 5627 5623 5619 5615 5612 5610 5607 5604 5600 5597 5594 5591 5587 5583 5580 5578
5691 5688 5685 5681 5677 5673 5670 5668 5666 5663 5660 5658 5655 5652 5650 5647 5645 5643 5642 5639 5637 5634 5632 5629 5627 5624 5621 5618 5613 5609 5605 5603 5601 5598 5595 5591 5588 5584 5581 5576 5572 5567 5564
5689 5685 5681 5677 5674 5670 5667 5664 5662 5659 5656 5653 5650 5648 5646 5643 5640 5638 5636 5632 5630 5628 5625 5621 5619 5616 5612 5609 5605 5601 5597 5595 5591 5588 5584 5581 5578 5574 5570 5566 5562 5557 5552
5685 5681 5677 5673 5671 5667 5663 5659 5657 5654 5650 5647 5645 5642 5640 5638 5635 5632 5630 5627 5625 5621 5617 5614 5610 5608 5604 5601 5597 5593 5590 5586 5581 5576 5573 5569 5566 5562 5559 5555 5551 5547 5543
5679 5675 5672 5669 5666 5663 5659 5655 5652 5649 5645 5642 5639 5636 5633 5632 5629 5627 5624 5621 5617 5614 5610 5607 5603 5599 5596 5592 5588 5584 5580 5574 5569 5565 5561 5558 5554 5551 5547 5543 5540 5536 5533
5675 5671 5667 5664 5661 5658 5655 5652 5648 5644 5641 5638 5635 5632 5629 5626 5623 5620 5617 5613 5610 5606 5602 5598 5595 5591 5586 5582 5578 5574 5569 5564 5559 5554 5551 5547 5543 5539 5534 5530 5526 5523 5519
5671 5667 5664 5660 5657 5653 5649 5646 5644 5641 5639 5635 5632 5629 5625 5621 5618 5616 5612 5607 5603 5598 5594 5589 5585 5580 5575 5571 5568 5564 5559 5554 5549 5545 5540 5535 5531 5526 5522 5518 5513 5509 5505
5666 5662 5659 5655 5652 5648 5643 5638 5636 5636 5634 5631 5629 5625 5621 5617 5613 5609 5605 5601 5597 5592 5586 5581 5576 5572 5567 5562 5558 5553 5549 5544 5539 5534 5529 5523 5519 5514 5510 5506 5501 5496 5492
5663 5659 5655 5651 5647 5643 5640 5635 5629 5626 5625 5623 5621 5618 5614 5610 5606 5602 5597 5592 5588 5583 5577 5572 5567 5563 5558 5554 5549 5544 5539 5534 5529 5524 5518 5513 5508 5503 5498 5493 5488 5484 5480
5659 5655 5651 5647 5643 5640 5636 5632 5628 5623 5618 5614 5612 5610 5606 5602 5598 5593 5588 5583 5577 5573 5568 5563 5559 5554 5550 5545 5539 5534 5529 5524 5518 5513 5507 5502 5497 5491 5486 5481 5476 5472 5468
5653 5649 5646 5642 5638 5635 5632 5628 5624 5620 5615 5610 5605 5601 5597 5593 5589 5584 5579 5574 5569 5565 5560 5555 5550 5545 5540 5535 5530 5524 5519 5513 5508 5502 5497 5491 5485 5480 5475 5469 5465 5461 5457
5646 5643 5640 5636 5632 5629 5626 5623 5619 5615 5610 5605 5601 5595 5589 5584 5579 5574 5570 5566 5562 5557 5552 5547 5541 5536 5531 5525 5520 5514 5509 5503 5498 5492 5486 5480 5475 5469 5464 5459 5454 5450 5447
5640 5636 5633 5630 5626 5623 5620 5617 5613 5609 5605 5600 5595 5590 5584 5579 5574 5569 5564 5559 5554 5549 5544 5538 5532 5527 5521 5515 5510 5504 5499 5493 5487 5481 5475 5469 5464 5459 5454 5449 5445 5441 5438
5633 5630 5626 5623 5620 5617 5613 5610 5606 5602 5598 5593 5588 5583 5578 5573 5567 5563 5557 5552 5547 5541 5535 5529 5523 5517 5511 5505 5500 5494 5488 5482 5476 5470 5464 5459 5453 5449 5444 5440 5436 5432 5428
5627 5623 5620 5617 5613 5610 5606 5602 5598 5594 5590 5585 5581 5576 5570 5565 5560 5555 5550 5544 5538 5532 5526 5519 5513 5507 5501 5495 5490 5484 5477 5471 5465 5459 5454 5449 5444 5439 5435 5431 5427 5423 5420
5620 5616 5613 5609 5606 5602 5598 5595 5591 5587 5583 5578 5573 5568 5562 5557 5552 5547 5541 5535 5528 5522 5516 5509 5503 5497 5491 5485 5479 5473 5467 5461 5455 5450 5444 5439 5434 5430 5426 5423 5419 5415 5411
5612 5609 5605 5602 5598 5595 5591 5587 5584 5579 5575 5570 5565 5560 5555 5549 5543 5538 5531 5525 5518 5512 5506 5499 5493 5487 5481 5475 5469 5463 5457 5451 5445 5440 5434 5430 5426 5422 5418 5415 5411 5407 5404
5604 5601 5597 5594 5590 5587 5583 5579 5575 5571 5566 5562 5557 5552 5546 5540 5534 5528 5521 5515 5508 5502 5496 5489 5483 5477 5471 5465 5459 5453 5448 5442 5437 5431 5426 5422 5418 5414 5411 5407 5404 5400 5396